This is the latest recevied weather packets stored in our database for station/object N3FU-13. If no packets are shown the sender has not sent any weather packets the latest 10 day(s).
| Time | Temp. | Humidity | Pressure | Rain* | Wind** | Luminosity | Snow |
|---|---|---|---|---|---|---|---|
| 1777928226 | 33.89° C | 41% | 1013.4 hPa | 0 mm | - | - | - |
| 1777927326 | 33.33° C | 41% | 1013.5 hPa | 0 mm | - | - | - |
| 1777927188 | 32.22° C | 44% | 1013.6 hPa | 0 mm | - | - | - |
| 1777926426 | 32.78° C | 43% | 1013.4 hPa | 0 mm | - | - | - |
| 1777925526 | 32.22° C | 44% | 1013.6 hPa | 0 mm | - | - | - |
| 1777924626 | 31.67° C | 45% | 1013.8 hPa | 0.25 mm | - | - | - |
| 1777923726 | 30.56° C | 50% | 1014 hPa | 0.25 mm | - | - | - |
| 1777922826 | 30.56° C | 53% | 1014.3 hPa | 0.25 mm | - | - | - |
| 1777921926 | 30° C | 50% | 1014.5 hPa | 0.25 mm | - | - | - |
| 1777921026 | 31.11° C | 47% | 1014.7 hPa | 0 mm | - | - | - |
| 1777920126 | 33.33° C | 48% | 1014.8 hPa | 0 mm | - | - | - |
| 1777919226 | 33.33° C | 39% | 1015.1 hPa | 0 mm | - | - | - |
| 1777918326 | 32.78° C | 41% | 1015.4 hPa | 0 mm | - | - | - |
| 1777917426 | 32.22° C | 41% | 1015.8 hPa | 0 mm | - | - | - |
| 1777916526 | 32.22° C | 42% | 1015.8 hPa | 0 mm | - | - | - |
| 1777915626 | 31.67° C | 43% | 1016 hPa | 0 mm | - | - | - |
| 1777914726 | 31.67° C | 44% | 1016.1 hPa | 0 mm | - | - | - |
| 1777913826 | 31.11° C | 45% | 1016.2 hPa | 0 mm | - | - | - |
| 1777912927 | 31.11° C | 46% | 1016.4 hPa | 0 mm | - | - | - |
| 1777912363 | 30.56° C | 48% | 1016.5 hPa | 0 mm | - | - | - |
| 1777912027 | 30.56° C | 48% | 1016.5 hPa | 0 mm | - | - | - |
| 1777911127 | 30° C | 48% | 1016.6 hPa | 0 mm | - | - | - |
| 1777910227 | 30° C | 49% | 1016.8 hPa | 0 mm | - | - | - |
| 1777909327 | 30° C | 52% | 1016.8 hPa | 0 mm | - | - | - |
| 1777908427 | 29.44° C | 53% | 1016.8 hPa | 0 mm | - | - | - |
* Rain latest hour (hover to see other rain measurements)
** Current wind speed in m/s (hover to see current wind gust speed)